Terminal Aerodrome Forecast
Issued by NWS St Louis, MO

Home | Current Version | Previous Version | Text Only | Print | Product List | Glossary On
Versions: 1 2 3 4 5 6 7 8 9 10 11 12 13 14 15 16 17 18 19 20 21 22 23 24 25 26
973
FTUS43 KLSX 161725
TAFSTL
TAF
KSTL 161725Z 1618/1724 29009KT P6SM BKN040
     FM170500 30006KT P6SM SCT050
     FM172300 23005KT P6SM FEW250=

USA.gov is the U.S. government's official web portal to all federal, state and local government web resources and services.